Location: Antonio Ribeiro de Abreu
(19.8340°S, 43.9053°W)
Time: 00:50:32
(UTC+00:00)

Daily predictions for brighter satellites

Satellite Brightness Start Highest point End
(mag) Time Altitude Azimuth Time Altitude Azimuth Time Altitude Azimuth
Cosmos 1339 Rocket 4.5 07:06:12 81° ESE 07:06:20 82° E 07:12:39 10° N
Cosmos 2082 Rocket 3.3 07:06:24 31° SSE 07:08:17 41° ESE 07:13:35 10° NE
GPS 2-14 Rocket1 4.1 07:20:53 36° E 07:20:53 36° E 07:23:23 10° E
GEOS 3 Rocket 4.2 07:16:36 10° NE 07:21:43 55° ESE 07:23:15 41° S
Atlas Centaur 2 4.2 07:21:54 22° NW 07:22:19 22° NNW 07:28:11 10° NNE
Cosmos 2369 Rocket 2.2 07:18:57 10° N 07:24:31 77° ENE 07:30:12 10° SSE
ATLAS CENTAUR R/B 4.5 07:22:02 25° S 07:26:15 55° ESE 07:41:00 10° NE
Aurora 2 Rocket 3.8 07:28:44 51° SW 07:30:17 63° S 07:39:08 10° E
Cosmos 1656 Rocket 3.8 07:27:05 10° N 07:32:31 70° ENE 07:38:05 10° SSE
Meteor 1-27 4.3 07:33:15 10° N 07:38:50 78° E 07:44:26 10° S
OAO 3 Rocket 3.7 07:40:47 42° S 07:40:47 42° S 07:44:44 10° SE
COSMOS 2406 3.2 07:40:31 53° WSW 07:41:11 56° WNW 07:46:45 10° N
GPS 2-17 Rocket1 2.7 07:43:39 79° W 07:43:55 88° NNW 07:48:16 10° E
Centaur D-1AR AC-36 3.7 07:42:46 17° NNW 07:44:19 20° N 07:50:16 10° NE
Cosmos 1821 Rocket 3.9 07:38:21 10° N 07:44:41 78° W 07:51:00 10° S
NOAA 11 4.1 07:41:54 10° N 07:47:17 66° WNW 07:50:02 30° SSW
USA 267 4.3 07:42:07 10° S 07:46:22 25° SSW 07:46:22 25° SSW
Cosmos 1869 3.3 07:44:11 10° N 07:47:25 59° NW 07:47:25 59° NW
Meteor 1-31 Rocket 2.6 07:47:32 10° NNE 07:51:20 90° SW 07:52:36 41° SSW
SL-08 R/B 3.1 07:48:28 10° S 07:53:11 76° WSW 07:57:46 10° NNW
Cosmos 1727 Rocket 4.0 07:47:14 10° S 07:53:29 83° E 07:59:43 10° N
TIMED 4.4 07:54:29 35° SSW 07:56:17 78° WNW 08:00:37 10° N
Cosmos 1939 Rocket 3.6 07:56:03 10° NNE 08:00:01 54° ESE 08:03:59 10° S
Cosmos 2151 4.4 07:56:07 10° SSE 08:00:06 39° E 08:04:01 10° NNE
Cosmos 2084 3.9 08:00:14 37° WNW 08:00:15 37° WNW 08:03:59 10° N
Meteor 2-3 Rocket 4.0 07:56:23 10° S 08:02:12 73° E 08:07:59 10° NNE
CZ-2C R/B 3.5 07:57:37 10° N 08:02:39 40° W 08:04:38 29° SW
Cosmos 1833 Rocket 4.4 08:05:47 14° WNW 08:05:47 14° WNW 08:07:25 10° NW
Cosmos 1812 Rocket 3.5 08:02:17 10° N 08:06:45 74° W 08:11:15 10° S
Cosmos 1606 4.3 08:03:55 10° NNE 08:07:24 36° E 08:10:58 10° SSE
CZ-4B R/B 4.2 08:05:07 10° N 08:08:56 45° W 08:10:54 26° SW
Cosmos 407 Rocket 3.9 08:08:03 10° NW 08:12:49 37° WSW 08:17:35 10° S
CZ-4B R/B 4.1 08:14:15 10° NNE 08:17:56 41° ESE 08:21:29 10° S
CZ-2C R/B 2.5 08:13:22 10° S 08:18:37 84° WSW 08:23:46 10° NNW
BREEZE-M DEB (TANK) 4.4 08:18:17 19° W 08:21:08 33° NW 08:32:59 10° NNE
DELTA 2 R/B(2) 4.4 08:22:10 27° S 08:22:10 27° S 08:24:02 10° SE
Cosmos-2242 2.9 08:18:29 10° NNW 08:22:42 61° W 08:26:58 10° S
Cosmos 1140 Rocket 4.3 08:18:51 10° NW 08:23:13 27° WSW 08:27:35 10° SSW
Delta 128 3.9 08:20:33 21° SW 08:23:24 54° SSE 08:27:48 10° E
SWIFT 3.6 08:20:56 10° NW 08:24:53 37° NNE 08:28:48 10° E
Cosmos 1934 Rocket 3.9 08:19:51 10° N 08:25:52 72° W 08:31:58 10° S
Cosmos 1076 Rocket 3.6 08:24:44 10° SSW 08:28:53 51° W 08:33:00 10° N
Milstar 3 Cent rocket 3.9 08:25:47 16° WSW 08:31:20 51° S 08:44:57 10° E
ATLAS 5 CENTAUR R/B 4.1 08:30:32 10° SSE 08:33:40 17° SE 08:36:29 10° E
Cosmos 1340 Rocket 4.1 08:33:33 15° WSW 08:35:26 20° W 08:38:26 10° NW
NOAA 12 4.3 08:30:57 10° N 08:36:06 52° W 08:41:20 10° SSW
Cosmos 1954 Rocket 4.0 08:31:23 10° NNW 08:36:34 59° WSW 08:41:46 10° S
Mugunghwa Rocket 4.0 08:33:23 14° WSW 08:39:00 85° SSE 08:45:21 10° ENE
Tiangong 1.1 08:37:33 15° WSW 08:40:03 68° NW 08:43:14 10° NE
H-2A R/B 2.2 08:37:33 10° NNE 08:42:57 85° E 08:48:16 10° S
ADEOS 3.9 08:40:42 10° N 08:45:42 48° W 08:50:46 10° SSW
H-2A ROCKET BODY 2.8 08:43:09 10° W 08:46:58 64° S 09:02:15 10° ESE
CZ-2D R/B 3.3 08:43:47 10° NNE 08:47:34 82° E 08:51:24 10° S
Intelsat 5-1 Rocket 4.1 08:44:50 10° WNW 08:47:59 21° N 08:53:45 10° NE
CCE 1 Rocket 4.2 08:43:36 10° W 08:48:13 38° SSW 08:51:51 10° SE
Cosmos 2123 Rocket 4.1 08:42:27 10° S 08:48:44 88° E 08:54:55 10° N
Cosmos 2082 Rocket 3.7 08:48:36 10° WSW 08:51:55 16° W 08:55:15 10° NW
ASTRO E2 4.3 08:50:17 10° WSW 08:53:17 20° SSW 08:56:19 10° SE
GPS 2-14 Rocket1 3.4 08:56:04 10° W 08:59:57 48° NNW 09:03:54 10° ENE
CZ-3 Stage 3 4.4 09:06:58 10° NW 09:34:52 65° NNE 09:39:24 10° ESE
